Airfield :
LOGIN :

Register | Disclaimer

   EN    FR    IT 

 










Legend :    VFR   Marginal VFR   IFR   Intensive IFR   Very Intensive IFR
Visi :
Ceiling :
>= 8 km
>= 3000ft
5 to 8 km
1000 to 3000 ft
1500m to 5 km
500 to 1000 ft
800 to 1500m
200 to 500 ft
< 800m
< 200 ft
Symbols :   Thunderstorms  Fog  Heavy snow  Heavy precipitations  Wind > 20 kt
SIGMETs :     Misc.  Thunderstorms  Icing  Turbulence  Mountain Waves  Volcanic Ashes







- Airport Elevation : 226 ft
- IATA code : BEX


EGUB - RAF Benson

CURRENT METAR :
  • 210650Z 13008KT 5000 BR BKN005 02/01 Q1007 YLO1 BECMG 8000 BKN007 GRN

EXPIRED METARs :
  • 210550Z AUTO 14006KT 5000 // OVC006/// 02/01 Q1006
  • 210450Z AUTO 14006KT 7000 // OVC005/// 02/01 Q1005

TAF TAF EGUB
Valid from the 21 at 07:00 until the 21 at 15:00 UTC


210659Z 2107/2115 14008KT 6000 BR BKN005
BECMG 2107/2109 8000 BKN007
BECMG 2109/2111 NSW BKN030
PROB40
TEMPO 2109/2111 6000 -SHRA
TEMPO 2111/2115 SCT020
ATIS : +44 1491-837766 (x7524)
No reported NOTAMs for that airfield.



MET'MAP, your aeronautical weather chart ! - Copyright ORBIFLY December 2007 - Disclaimer

ORBIFLY MET'MAP TEAM :

Programming & Development : Alexandra Zaïnal
Concept & Development : Baudouin d'Aumeries
Co-Development & Prog : Marc-Olivier Méhu
Technical & hardware support : Manuel Goepfert

Contact : metmap@orbifly.com




SOURCES & CREDITS :

   NOAA